CDT,Max TemperatureF,Mean TemperatureF,Min TemperatureF,Max Dew PointF,MeanDew PointF,Min DewpointF,Max Humidity, Mean Humidity, Min Humidity, Max Sea Level PressureIn, Mean Sea Level PressureIn, Min Sea Level PressureIn, Max VisibilityMiles, Mean VisibilityMiles, Min VisibilityMiles, Max Wind SpeedMPH, Mean Wind SpeedMPH, Max Gust SpeedMPH,PrecipitationIn, CloudCover, Events, WindDirDegrees
2012-10-1,82,68,53,51,47,42,86,56,26,29.91,29.85,29.81,10,10,7,20,9,26,0.00,0,,324
2012-10-2,78,60,42,44,41,39,83,55,26,29.96,29.91,29.86,10,10,6,17,6,22,0.00,0,,311
2012-10-3,81,58,34,49,41,34,100,62,23,29.98,29.93,29.87,10,9,4,22,6,26,0.00,0,,161
2012-10-4,65,58,51,50,43,37,77,64,51,30.27,30.17,29.97,10,10,10,23,9,28,T,5,,348
2012-10-5,54,40,26,36,31,26,92,67,41,30.33,30.29,30.25,10,9,5,22,9,28,0.00,4,,9
2012-10-6,48,39,30,34,26,20,96,67,37,30.39,30.34,30.31,10,10,8,16,7,21,0.00,3,,336
2012-10-7,59,40,21,27,24,20,88,57,25,30.35,30.27,30.16,10,10,8,13,4,18,0.00,1,,302
2012-10-8,67,47,27,36,30,24,85,56,26,30.17,30.06,29.95,10,10,9,24,12,31,0.00,0,,166
2012-10-9,69,50,30,45,37,26,79,61,43,30.16,29.97,29.90,10,10,9,18,8,24,0.00,2,,218
2012-10-10,65,45,24,32,27,22,92,58,24,30.31,30.22,30.15,10,10,3,13,4,18,0.00,0,,255
2012-10-11,76,56,36,56,44,31,76,60,43,30.15,30.09,30.02,10,9,5,20,7,24,0.00,4,,129
2012-10-12,59,55,51,55,40,27,93,66,38,30.31,30.20,30.07,10,9,4,22,11,28,0.09,8,Rain-Thunderstorm,90
2012-10-13,70,64,58,66,64,57,100,92,84,30.03,29.81,29.61,10,4,1,24,11,31,0.71,8,Rain-Thunderstorm,168
2012-10-14,71,58,44,63,52,42,93,65,37,30.02,29.78,29.56,10,10,6,30,11,36,0.03,4,Rain-Thunderstorm,283
2012-10-15,78,58,38,51,44,37,100,68,35,30.02,29.95,29.81,10,7,1,13,4,15,0.00,0,,133
2012-10-16,84,70,55,52,51,49,83,59,34,29.79,29.61,29.49,10,10,10,29,12,36,0.00,0,,191
2012-10-17,69,56,43,56,46,29,84,57,30,29.69,29.53,29.42,10,10,6,30,10,38,0.05,2,Rain,270
2012-10-18,63,54,45,36,29,24,54,41,27,29.72,29.69,29.65,10,10,6,38,20,48,T,4,Rain,289
2012-10-19,56,46,35,41,38,35,92,71,50,29.85,29.78,29.68,10,10,8,32,13,40,T,7,,310
2012-10-20,73,53,32,44,37,30,96,63,29,29.86,29.81,29.71,10,7,0,17,7,24,0.00,0,Fog,117
2012-10-21,79,63,47,66,60,43,93,79,64,29.79,29.75,29.72,10,8,6,21,10,25,0.00,4,,135
2012-10-22,84,75,66,67,64,58,84,70,55,29.82,29.76,29.70,10,8,6,23,10,29,T,3,,191
2012-10-23,84,77,69,66,65,62,84,70,55,29.80,29.75,29.68,10,9,8,24,13,35,0.00,4,,180
2012-10-24,86,77,68,66,64,59,87,69,51,29.79,29.74,29.68,10,10,8,25,14,32,0.00,4,,174
2012-10-25,73,55,37,63,46,29,86,73,60,30.32,29.90,29.62,10,9,5,29,19,36,0.03,8,Rain,308
2012-10-26,48,37,25,27,25,22,84,65,45,30.51,30.44,30.35,10,9,7,20,10,25,0.00,3,,349
2012-10-27,48,36,24,29,25,21,88,67,45,30.46,30.37,30.29,10,9,6,10,4,13,0.00,0,,19
2012-10-28,54,38,21,31,26,19,96,66,35,30.38,30.32,30.26,10,7,2,8,3,13,0.00,1,,103
2012-10-29,59,48,36,31,29,26,70,51,31,30.32,30.24,30.13,10,10,7,18,9,23,0.00,3,,134
2012-10-30,60,47,33,32,29,28,82,57,31,30.13,30.06,30.00,10,9,7,17,7,22,0.00,2,,97
2012-10-31,63,46,28,32,29,25,85,58,30,30.11,30.05,30.01,10,8,5,9,2,12,0.00,0,,311